Regional Weather Roundup
Issued by NWS Cleveland, OH

Home | Current Version | Previous Version | Graphics & Text | Print | Product List | Glossary On
Versions: 1 2 3 4 5 6 7 8 9 10 11 12 13 14 15 16 17 18 19 20 21 22 23 24 25 26 27 28 29 30 31 32 33 34 35 36 37 38 39 40 41 42 43 44 45 46 47 48 49 50
771
ASUS41 KCLE 210310
RWRCLE
OHIO REGIONAL WEATHER ROUNDUP
NATIONAL WEATHER SERVICE CLEVELAND, OH
1100 PM EDT SUN AUG 20 2017

NOTE: "FAIR" INDICATES FEW OR NO CLOUDS BELOW 12,000 FEET WITH NO
SIGNIFICANT WEATHER AND/OR OBSTRUCTIONS TO VISIBILITY.

OHZ001>008-015>018-024>027-034-035-043-044-210400-
   NORTHWEST OHIO

CITY           SKY/WX    TMP DP  RH WIND       PRES   REMARKS
DEFIANCE       CLOUDY    71  68  90 CALM      30.08R
FINDLAY        CLEAR     72  68  87 SE8       30.08R
TOLEDO EXPRESS CLOUDY    72  70  93 CALM      30.08S
TOLEDO EXEC    CLEAR     73  69  87 E7        30.08F
LIMA           CLEAR     69  67  93 SE3       30.10R
$$

OHZ009>014-019>023-028>033-038-089-210400-
   NORTHEAST OHIO

CITY           SKY/WX    TMP DP  RH WIND       PRES   REMARKS
CLE-HOPKINS    CLOUDY    80  64  58 S8        30.11F
CLE-LAKEFRONT  CLOUDY    79  62  56 SE6       30.09S
CUY CO. ARPT   PTCLDY    77  63  61 SE9       30.12S
LORAIN-ELYRIA    N/A    N/A N/A N/A MISG      30.10F
ASHTABULA      CLOUDY    71  61  70 SE6       30.14S
AKRON-CANTON   CLOUDY    76  63  64 SE8       30.15R
WOOSTER        MOCLDY    72  67  84 E5        30.13S
MANSFIELD      PTCLDY    74  68  81 SE8       30.13S
YOUNGSTOWN     PTCLDY    66  60  81 SE6       30.15S
$$

OHZ042-051>053-060>062-070>072-077>081-210400-
  SOUTHWEST OHIO

CITY           SKY/WX    TMP DP  RH WIND       PRES   REMARKS
CINC-COVINGTON CLOUDY    75  68  78 SE5       30.10S
CINC-LUNKEN    CLOUDY    72  70  93 CALM      30.10R
HAMILTON       CLOUDY    71  69  93 CALM      30.10R
DAYTON         MOCLDY    75  63  66 CALM      30.12R
WRIGHT-PAT AFB MOCLDY    73  66  78 SE3       30.11R
DAYTON GENERAL CLOUDY    75  65  70 CALM      30.11R
WILMINGTON     MOCLDY    73  69  87 CALM      30.12R
$$

OHZ036-037-039>041-045>050-054>059-063>069-073>076-082>088-210400-
  CENTRAL AND SOUTHEAST OHIO

CITY           SKY/WX    TMP DP  RH WIND       PRES   REMARKS
COLUMBUS       PTCLDY    79  71  76 S5        30.10R
OSU AIRPORT    CLEAR     77  69  76 SW5       30.11R
BOLTON FIELD   PTCLDY    72  68  87 W3        30.12R
RICKENBACK AFB PTCLDY    74  70  88 S5        30.10S
NEWARK         CLEAR     73  70  90 CALM      30.12R
MARION         PTCLDY    74  68  81 S3        30.11R
LANCASTER      CLOUDY    70  69  97 CALM      30.12S
ZANESVILLE     CLEAR     74  68  81 SE6       30.13S
NEW PHILLY     NOT AVBL
$$




USA.gov is the U.S. government's official web portal to all federal, state and local government web resources and services.